Location: Arrien
(42.8963°N, 1.0429°E)
Time: 01:58:12
(UTC+00:00)

Cosmos 1486 Rocket - Pass Details

Date: 11 December 2025
Orbit: 754 x 780 km, 74.1° (Epoch: 12 January)

Event Time Altitude Azimuth Distance (km) Brightness Sun altitude
Rises 16:54:18 0° 204° (SSW) 3,199 8.1 -6.1°
Reaches altitude 10° 16:56:39 10° 206° (SSW) 2,281 7.3 -6.5°
Maximum altitude 17:01:49 73° 291° (WNW) 798 4.3 -7.4°
Drops below altitude 10° 17:07:04 10° 17° (NNE) 2,313 6.1 -8.2°
Sets 17:09:28 0° 19° (NNE) 3,247 6.8 -8.6°
